www.pogodaiklimat.ru

Погода и климат >> Архив погоды >> Россия >> Алтай >> Усть-Кан


ПОГОДА в Усть-Кане

  • Прогноз погоды в Усть-Кане
  • Монитор погоды в Усть-Кане

АРХИВ ПОГОДЫ в Усть-Кане

Время (UTC), дата Ветер
(напр.,м/с)
 
Видим.   Явления Облачность Т
(С)
Тd
(С)
f
(%)
Тe
(С)
Тes
(С)
Комфортность P
(гПа)
Po
(гПа)
Тmin
(С)
Tmax
(С)
R
(мм)
R24
(мм)
S
(см)
18 14.05 ЮВ 3 50 км 9 баллов +0.4 -5.6 64 -4 -4 1007.5 886.7
21 14.05 ЮЗ 2 н/о н/о +1.9 -4.4 63 -1 -1 1003.7 884.0
00 15.05 З 5
{11}
20 км слаб. ливневой снег 10/10 600 м
[Cb cap]
-1.4 -3.3 87 -8 -8 886.2 -2.0 2 5
03 15.05 СЗ 5-10
{11}
50 км {ливн. осадки} 8/8 600 м
[Cb cap]
+0.7 -6.4 59 -5 -3 1010.4 889.3
06 15.05 С 2
{11}
20 км слаб. ливневой снег 10/10 600 м
[Cb cap]
-1.3 -3.6 84 -5 -5 891.5
09 15.05 СЗ 2 10 км слаб. ливневой снег 10 баллов -1.4 -3.0 89 -5 -5 1017.4 894.7
12 15.05 СЗ 3 50 км {ливн. осадки} 8/8 600 м
[Cb cap]
-0.6 -6.2 66 -5 -5 896.5 +2.0 4
15 15.05 З 2 50 км 6 баллов -2.0 -5.8 75 -6 -6 1023.8 900.0
18 15.05 З 1 50 км 6 баллов -2.8 -6.1 78 -5 -5 1024.2 900.0
21 15.05 Ю 3 50 км 7 баллов -4.4 -9.0 70 -10 -10 1025.0 900.0
00 16.05 штиль 0 50 км 9/9 600 м
[Cb cap]
-4.2 -7.2 80 -5 -5 899.6 -4.8 10
03 16.05 В 1 50 км 9/9 1000 м
[Sc]
+1.7 -6.4 55 +1 +2 1023.5 901.3
06 16.05 В 2 50 км 6 баллов +3.4 -9.6 38 +1 +8 1021.3 900.0
09 16.05 С 4 50 км 6 баллов +3.6 -5.3 52 -0 +3 1019.7 898.7
12 16.05 Ю 2 10 км слаб. ливневой снег 9/9 600 м
[Cb cap]
-0.2 -3.7 77 -4 -3 899.4 +3.9 0.0
15 16.05 СЗ 1 50 км 4 балла -1.2 -4.0 81 -3 -3 1024.9 901.3
18 16.05 СВ 2 10 км слаб. ливневой снег 10 баллов -1.9 -3.6 88 -6 -6 1025.2 901.3
21 16.05 СЗ 1 50 км 9 баллов -2.5 -3.5 93 -5 -5 1024.0 900.0
00 17.05 СВ 1 50 км {ливн. осадки} 9/9 600 м
[Cb calv]
-4.8 -6.2 90 -7 -7 900.7 -5.1 2 7
03 17.05 ЮЗ 1 50 км 9 баллов +0.6 -6.5 59 -1 0 1025.6 902.7
06 17.05 СВ 3 50 км 7 баллов +2.7 -5.7 54 -1 +3 1024.6 902.7
09 17.05 СЗ 2 50 км 7 баллов +6.0 -9.8 31 +5 +8 1023.2 902.7
12 17.05 СЗ 4 50 км 6/6 1000 м
[Sc]
+6.1 -9.6 31 +3 +4 901.6 +6.7
15 17.05 ЮЗ 2 50 км 2 балла +0.4 -6.7 59 -3 -3 1027.2 904.0
18 17.05 Ю 1 50 км ясно -1.6 -6.7 68 -3 -3 1028.2 904.0
21 17.05 ЮВ 1 50 км ясно -3.8 -7.4 76 -6 -6 1027.8 902.7
00 18.05 СВ 1 50 км 4/0
[Ac lent]
-3.7 -7.2 77 -6 -5 902.0 -6.6 0
03 18.05 З 2 50 км 2 балла +6.1 -6.8 39 +5 +12 1020.0 900.0
06 18.05 Ю 4 50 км 4/0
[Ac lent]
+12.7 -11.7 17 +11 +18 1015.7 898.7
09 18.05 ЮЗ 2 50 км 2 балла +16.3 -10.4 15 +17 +26 1012.6 897.3
12 18.05 ЮЗ 2 50 км 3/0
[Ac lent]
+16.4 -12.1 13 +17 +19 895.1 +17.1
15 18.05 ЮЗ 2 50 км ясно +10.0 -10.7 22 +9 +9 1013.8 896.0
18 18.05 ЮЗ 2 50 км ясно +6.6 -8.9 32 +5 +5 1015.3 896.0
21 18.05 штиль 0 50 км ясно +4.8 -7.0 42 +5 +5 1016.1 896.0
00 19.05 ЮВ 2 50 км 9/9 1000 м
[Sc]
+7.9 -8.0 31 +7 +7 894.2 +4.5
03 19.05 В 3 50 км 6 баллов +14.7 -10.1 17 +14 +17 1010.3 894.7
06 19.05 В 2 50 км 9 баллов +17.9 -11.9 12 +18 +20 1009.0 894.7
09 19.05 З 5 50 км 9 баллов +18.7 -8.5 15 +18 +19 1010.1 896.0
12 19.05 З 1
{12}
50 км 9/9 1000 м
[Cb cap]
+13.7 -0.7 37 +14 +15 895.9 +19.9
15 19.05 З 1 50 км 9 баллов +13.7 +0.3 40 +14 +14 1012.0 896.0
18 19.05 С 1 50 км 9 баллов +11.4 +0.8 48 +12 +12 1013.0 896.0
21 19.05 ЮЗ 2 50 км 9 баллов +13.5 -1.3 36 +13 +13 1010.7 894.7
00 20.05 Ю 4
{14}
50 км 9/9 1000 м
[Sc]
+12.4 +1.2 46 +11 +11 894.5 +10.1
03 20.05 Ю 3 20 км осадки на расстоянии 9 баллов +13.6 +5.0 56 +13 +13 1012.0 896.0
06 20.05 ЮЗ 2
{10}
10 км слаб. ливневой дождь 9/9 600 м
[Cb cap]
+13.5 +7.9 69 +13 +15 894.9
09 20.05 ЮЗ 5 50 км 9 баллов +15.6 +4.3 47 +15 +15 1011.1 896.0
12 20.05 Ю 4-11
{11}
50 км {ливн. осадки} 8/8 1000 м
[Sc diur, vesp]
+16.5 +3.5 42 +16 +16 893.3 +17.0 1
15 20.05 ЮВ 5 50 км 9 баллов +14.7 +4.4 50 +13 +13 1007.0 892.0
18 20.05 ЮВ 2 10 км слаб. ливневой дождь 10 баллов +10.1 +6.1 76 +9 +9 1008.9 892.0
21 20.05 ЮВ 2 10 км слаб. ливневой дождь 10 баллов +9.8 +7.6 86 +8 +8 1005.9 889.3
00 21.05 ЮВ 4 50 км в посл. час ливневой дождь 9/9 600 м
[Cb cap]
+10.6 +6.4 75 +8 +8 888.5 +9.4 9
03 21.05 ЮВ 2 50 км 9 баллов +14.4 +6.2 58 +14 +15 1004.0 889.3
06 21.05 З 1 20 км слаб. ливневой дождь 10 баллов +13.2 +7.6 69 +13 +13 1004.5 889.3
09 21.05 СЗ 1 20 км слаб. ливневой дождь 10 баллов +10.0 +7.4 84 +10 +10 1005.8 889.3
12 21.05 СЗ 1 20 км слаб. ливневой дождь 10/10 600 м
[Cb cap]
+8.8 +6.6 86 +8 +8 888.8 +15.7 11
15 21.05 З 1 50 км 9 баллов +8.0 +6.1 88 +7 +7 1008.3 890.7

 

Местоположение метеостанции Усть-Кан (Алтай, Россия): широта 50.93 долгота 84.75 высота над уровнем моря 1037 м.

В архиве по умолчанию представлена погода в Усть-Кане за последнюю неделю. Архивные данные за месяц целиком и за предыдущие месяцы, начиная с января 2011 года, Вы можете получить, выбрав интересующий диапазон дат из раскрывающегося списка и нажав кнопку "Ввод!".


*Определитесь, кто Вы:
робот инопланетянин человек

Внимание! Время в таблицах - всемирное. Для получения местного времени необходимо прибавить поправку, которая равна 7 ч.

Смотрите также архив погоды в соседних городах и на ближайших метеорологических станциях:

Погода в Семинском перевале (Алтай, Россия) (15 км)
Погода в Шебалино (Алтай, Россия) (77 км)
Погода в Солонешном (Алтайский край, Россия) (83 км)
Погода в Усть-Коксе (Алтай, Россия) (96 км)
Погода в Чарышском (Алтайский край, Россия) (96 км)
Погода в Онгудае (Алтай, Россия) (99 км)
Погода в Чемале (Алтай, Россия) (102 км)
Погода в Риддере (Восточно-Казахстанская область, Казахстан) (108 км)
Погода в Белокурихе (Алтайский край, Россия) (118 км)
Погода в Катанде (Алтай, Россия) (132 км)

Пояснения к столбцам:

Ветер - указаны скорость ветра в м/с - средняя за 10 мин, порывы в срок и между сроками (в фигурных скобках) и направление, откуда дует ветер: С - северный, СВ - северо-восточный, В - восточный, ЮВ - юго-восточный, Ю - южный, ЮЗ - юго-западный, З - западный, СЗ - северо-западный.
Видимость - горизонтальная дальность видимости в метрах или километрах. При видимости от 1 до 10 км при отсутствии осадков обычно наблюдается дымка, при ухудшении видимости до 1 км и менее - туман. В сухую погоду видимость может ухудшаться дымом, пылью или мглою.
Явления - указаны атмосферные явления, наблюдавшиеся в срок или в последний час перед сроком; фигурными скобками обозначены явления, наблюдавшиеся между сроками (за 1-3 часа до срока); квадратными скобками обозначены град или гололедные отложения с указанием их диаметра в мм.
Облачность - указаны через наклонную черту общая и нижняя облачность в баллах и высота нижней границы облаков в метрах; квадратными скобками обозначены формы облаков: Ci - перистые, Cs - перисто-слоистые, Cc - перисто-кучевые, Ac - высококучевые, As - высокослоистые, Sc - слоисто-кучевые, Ns - слоисто-дождевые, Cu - кучевые, Cb - кучево-дождевые. Подробнее классификацию облаков см. в Атласе облаков (PDF).
T - Температура воздуха - температура, измеренная на высоте 2 м над землей.
Td - Температура точки росы - температура, при понижении до которой содержащийся в воздухе водяной пар достигнет насыщения.
f - Относительная влажность воздуха - влажноcть воздуха, измеренная на высоте 2 м над землей.
Te - Эффективная температура - температура, которую ощущает одетый по сезону человек в тени. Характеристика душности погоды. При расчете учитывается влияние влажности воздуха и скорости ветра на теплоощущения человека.
Tes - Эффективная температура на солнце - температура, которую ощущает человек, с поправкой на солнечный нагрев. Характеристика знойности погоды. Зависит от высоты солнца над горизонтом, облачности и скорости ветра. Ночью, в пасмурную погоду, а также при ветре 12 м/с и более поправка равна нулю.
P - Атмосферное давление - приведенное к уровню моря атмосферное давление.
Po - Атмосферное давление - измеренное на уровне метеостанции атмосферное давление.
Tmin - Минимальная температура - минимум температуры воздуха на высоте 2 м над землей.
Tmax - Максимальная температура - максимум температуры воздуха на высоте 2 м над землей.
R - Количество осадков - Количество выпавших осадков за период времени, мм. При наведении курсора мыши на число - период времени, за который выпало указанное количество осадков.
R24 - Количество осадков - Количество выпавших осадков за 24 часа, мм.
S - Снежный покров - Высота снежного покрова, см. При наведении курсора мыши на число - состояние снежного покрова и степень покрытия местности в баллах.